"2010-02-03 00:00:00",1647639,0.248,163.7,3.029,0.048,1.447,101.1345,2.194,3.256,27.14,0,109.9,13.48,2.95,125.7
"2010-02-03 00:00:30",1647640,1.405,188.2,12.72,1.279,4.37,101.1186,2.154,3.41,27.45,0,109.9,13.45,2.91,150.2
"2010-02-03 00:01:00",1647641,1.316,201.6,8.39,1.309,4.483,101.1186,2.154,3.369,27.56,0,109.9,13.45,2.91,163.6
"2010-02-03 00:01:30",1647642,1.436,208.9,4.65,1.218,4.088,101.1184,2.153,3.25,27.28,0,109.9,13.45,2.91,170.9
"2010-02-03 00:02:00",1647643,1.518,214.1,7.376,1.222,4.281,101.1085,2.128,3.358,26.92,0,109.9,13.45,2.89,176.1
"2010-02-03 00:02:30",1647644,0.942,215.5,5.446,0.852,2.965,101.0876,2.074,3.308,26.5,0,109.9,13.45,2.83,177.5
"2010-02-03 00:03:00",1647645,0.534,219.5,2.107,0.031,1.663,101.0847,2.067,3.225,26.25,0,109.9,13.49,2.83,181.5
"2010-02-03 00:03:30",1647646,1.644,230.8,6.849,1.33,3.598,101.0847,2.067,3.23,26.5,0,109.9,13.45,2.83,192.8
"2010-02-03 00:04:00",1647647,0.34,222.7,11.89,0.059,1.323,101.0627,2.011,3.184,26.93,0,109.9,13.49,2.77,184.7
"2010-02-03 00:04:30",1647648,0.291,205.8,12.67,0.06,1.274,101.0517,1.983,3.096,27.18,0,109.9,13.49,2.74,167.8
"2010-02-03 00:05:00",1647649,0.855,207.9,4.11,0.974,2.685,101.0546,1.99,3.258,27.52,0,109.9,13.46,2.75,169.9
"2010-02-03 00:05:30",1647650,2.431,213.1,6.033,1.086,5.526,101.058,1.999,3.236,27.73,0,109.9,13.46,2.76,175.1
"2010-02-03 00:06:00",1647651,2.035,221.4,7.537,1.242,4.666,101.0532,1.987,3.199,27.92,0,109.9,13.46,2.75,183.4
"2010-02-03 00:06:30",1647652,1.262,225.7,8.81,1.082,3.134,101.0321,1.933,3.196,28.1,0,109.9,13.46,2.69,187.7
"2010-02-03 00:07:00",1647653,1.156,229.7,4.184,0.935,2.107,101.0392,1.951,3.02,28.12,0,109.9,13.46,2.71,191.7
"2010-02-03 00:07:30",1647654,1.514,231.9,5.847,1.114,2.259,101.0429,1.96,2.996,28.1,0,109.9,13.46,2.72,193.9
"2010-02-03 00:08:00",1647655,1.493,231.8,4.823,1.126,3.174,101.0342,1.938,3.165,28.12,0,109.8,13.46,2.70,193.8
"2010-02-03 00:08:30",1647656,1.637,225.9,6.676,1.04,2.783,101.0167,1.893,2.971,27.77,0,109.8,13.46,2.65,187.9
"2010-02-03 00:09:00",1647657,2.414,224.4,6.288,1.259,4.587,101.0173,1.895,3.089,27.7,0,109.8,13.46,2.65,186.4
"2010-02-03 00:09:30",1647658,2.531,230.2,7.339,1.161,5.219,101.0051,1.864,3.129,27.61,0,109.8,13.46,2.62,192.2
"2010-02-03 00:10:00",1647659,2.16,237.6,6.582,1.257,5.252,100.9834,1.808,3.144,28.18,0,109.8,13.46,2.57,199.6
"2010-02-03 00:10:30",1647660,1.389,224.4,12.67,1.256,3.84,100.98,1.8,2.997,28.94,0,109.8,13.46,2.56,186.4
"2010-02-03 00:11:00",1647661,0.112,190,4.295,0.054,1.788,100.9574,1.742,2.85,29.89,0,109.8,13.49,2.50,152.0
"2010-02-03 00:11:30",1647662,0.191,168,5.434,0.075,1.323,100.9495,1.722,2.808,30.57,0,109.8,13.49,2.48,130.0
"2010-02-03 00:12:00",1647663,1.242,157.4,8.59,1.261,2.918,100.9489,1.72,2.841,30.83,0,109.8,13.47,2.48,119.4
"2010-02-03 00:12:30",1647664,0.702,148.7,9.31,1.042,2.619,100.9359,1.687,2.933,30.78,0,109.8,13.47,2.45,110.7
"2010-02-03 00:13:00",1647665,0.498,144.5,8.31,0.867,2,100.9164,1.638,2.737,30.59,0,109.8,13.47,2.40,106.5
"2010-02-03 00:13:30",1647666,0.662,148.4,5.861,0.966,2.27,100.9156,1.635,2.74,30.67,0,109.8,13.48,2.39,110.4
"2010-02-03 00:14:00",1647667,1.799,157.4,8.69,1.239,4.708,100.9156,1.635,2.911,30.88,0,109.8,13.47,2.39,119.4
"2010-02-03 00:14:30",1647668,1.631,183.9,11.32,1.256,5.297,100.9119,1.626,3.02,31,0,109.8,13.48,2.38,145.9
"2010-02-03 00:15:00",1647669,1.294,227,6.008,1.213,3.247,100.891,1.573,2.717,30.63,0,109.8,13.48,2.33,189.0
"2010-02-03 00:15:30",1647670,0.935,238.7,8.3,1.001,2.229,100.8816,1.549,2.786,30.17,0,109.8,13.48,2.31,200.7
"2010-02-03 00:16:00",1647671,0.766,243.7,3.363,0.056,1.114,100.8817,1.549,2.647,29.49,0,109.8,13.52,2.31,205.7
"2010-02-03 00:16:30",1647672,2.105,251.7,8.87,1.296,3.354,100.8656,1.508,2.674,29.27,0,109.8,13.48,2.27,213.7
"2010-02-03 00:17:00",1647673,2.218,233.3,5.389,1.285,4.537,100.856,1.483,2.797,28.99,0,109.8,13.48,2.24,195.3
"2010-02-03 00:17:30",1647674,1.422,228.3,2.625,0.697,2.903,100.8574,1.487,2.58,27.74,0,109.8,13.48,2.24,190.3
"2010-02-03 00:18:00",1647675,2.448,238,7.078,1.292,5.719,100.8454,1.456,2.823,27.26,0,109.8,13.49,2.21,200.0
"2010-02-03 00:18:30",1647676,3.531,249.2,3.164,0.78,7.841,100.8406,1.444,2.841,26.73,0,109.8,13.49,2.20,211.2
"2010-02-03 00:19:00",1647677,2.318,240.7,6.779,1.24,5.04,100.8438,1.452,2.646,26.25,0,109.8,13.49,2.21,202.7
"2010-02-03 00:19:30",1647678,1.044,229.6,1.566,0.042,2.121,100.8432,1.451,2.509,25.94,0,109.8,13.52,2.21,191.6
"2010-02-03 00:20:00",1647679,1.517,232.3,5.954,1.093,2.609,100.8407,1.444,2.491,26.56,0,109.8,13.49,2.20,194.3
"2010-02-03 00:20:30",1647680,1.626,257,12.43,1.203,3.939,100.8404,1.444,2.642,28.07,0,109.8,13.49,2.20,219.0
"2010-02-03 00:21:00",1647681,0.723,267.9,3.516,0.667,2.223,100.8243,1.403,2.446,28.96,0,109.8,13.49,2.16,229.9
"2010-02-03 00:21:30",1647682,0.516,278.4,3.851,0.058,1.908,100.8141,1.377,2.525,29.38,0,109.8,13.53,2.13,240.4
"2010-02-03 00:22:00",1647683,2.272,300.1,7.687,1.083,5.526,100.8141,1.377,2.606,29.66,0,109.8,13.49,2.13,262.1
"2010-02-03 00:22:30",1647684,2.341,301.6,4.857,1.028,6.254,100.8141,1.377,2.732,29.83,0,109.8,13.49,2.13,263.6
"2010-02-03 00:23:00",1647685,1.115,294.1,9.32,1.162,3.554,100.8135,1.375,2.593,29.73,0,109.8,13.49,2.13,256.1
"2010-02-03 00:23:30",1647686,0.359,276.4,4.828,0,1.302,100.8039,1.351,2.394,29.66,0,109.8,13.53,2.11,238.4
"2010-02-03 00:24:00",1647687,0.482,254.2,8.68,0.041,1.049,100.7892,1.313,2.39,29.72,0,109.8,13.53,2.07,216.2
"2010-02-03 00:24:30",1647688,1.875,237,6.669,1.298,3.89,100.7802,1.29,2.546,29.55,0,109.8,13.5,2.05,199.0
"2010-02-03 00:25:00",1647689,0.778,227,0.837,0.043,1.948,100.7802,1.29,2.392,28.56,0,109.8,13.53,2.05,189.0
"2010-02-03 00:25:30",1647690,0.975,232.7,2.658,0.066,2.339,100.7774,1.283,2.349,27.91,0,109.7,13.53,2.04,194.7
"2010-02-03 00:26:00",1647691,2.279,240.2,5.666,1.258,5.374,100.7562,1.229,2.619,26.89,0,109.7,13.5,1.99,202.2
"2010-02-03 00:26:30",1647692,3.149,243.5,5.116,0.982,7.169,100.7483,1.209,2.608,25.71,0,109.7,13.5,1.96,205.5
"2010-02-03 00:27:00",1647693,2.648,242.2,6.706,1.259,5.736,100.752,1.218,2.495,25.26,0,109.7,13.5,1.97,204.2
"2010-02-03 00:27:30",1647694,1.252,233.5,0.795,0.034,2.739,100.756,1.228,2.297,25.18,0,109.7,13.53,1.98,195.5
"2010-02-03 00:28:00",1647695,1.661,235.7,3.89,0.856,2.873,100.7463,1.204,2.326,25.37,0,109.7,13.5,1.96,197.7
"2010-02-03 00:28:30",1647696,2.589,242.2,6.024,1.287,4.781,100.7328,1.169,2.392,25.43,0,109.7,13.5,1.93,204.2
"2010-02-03 00:29:00",1647697,1.409,239.4,0.369,0.012,2.472,100.7311,1.165,2.254,25.17,0,109.7,13.53,1.92,201.4
"2010-02-03 00:29:30",1647698,2.24,244.1,6.177,1.159,4.446,100.7368,1.179,2.454,25.46,0,109.7,13.5,1.94,206.1
"2010-02-03 00:30:00",1647699,2.815,247.6,4.764,1.153,6.203,100.7368,1.179,2.504,26.63,0,109.7,13.51,1.94,209.6
"2010-02-03 00:30:30",1647700,2.347,243.2,7.374,1.277,5.38,100.7385,1.184,2.497,28.73,0,109.7,13.51,1.94,205.2
"2010-02-03 00:31:00",1647701,1.283,250.6,3.812,1.18,2.799,100.7406,1.189,2.236,29.94,0,109.7,13.51,1.95,212.6
"2010-02-03 00:31:30",1647702,1.006,257.9,5.317,1.021,2.775,100.7363,1.178,2.292,30.3,0,109.7,13.51,1.93,219.9
"2010-02-03 00:32:00",1647703,1.276,253.5,7.743,1.11,2.344,100.7253,1.15,2.258,30.07,0,109.7,13.51,1.91,215.5
"2010-02-03 00:32:30",1647704,1.622,260.8,7.371,1.259,3.542,100.7154,1.125,2.322,30.37,0,109.7,13.51,1.88,222.8
"2010-02-03 00:33:00",1647705,0.939,255.7,4.595,0.78,1.756,100.7126,1.118,2.208,30.58,0,109.7,13.52,1.87,217.7
"2010-02-03 00:33:30",1647706,1.93,252.1,7.504,1.163,3.12,100.7126,1.118,2.244,30.67,0,109.7,13.52,1.87,214.1
"2010-02-03 00:34:00",1647707,3.09,251.4,5.386,1.121,6.042,100.7126,1.118,2.436,30.33,0,109.7,13.52,1.87,213.4
"2010-02-03 00:34:30",1647708,3.101,254.5,6.793,1.168,6.311,100.7126,1.118,2.419,29.4,0,109.7,13.52,1.87,216.5
"2010-02-03 00:35:00",1647709,2.03,256.2,4.403,1.067,3.445,100.7092,1.109,2.161,28.85,0,109.7,13.52,1.86,218.2
"2010-02-03 00:35:30",1647710,2.402,268.8,11.41,1.225,4.099,100.7004,1.087,2.34,29.01,0,109.7,13.52,1.84,230.8
"2010-02-03 00:36:00",1647711,2.047,271.6,10.61,0.975,2.065,100.6874,1.053,2.188,29.91,0,109.7,13.52,1.81,233.6
"2010-02-03 00:36:30",1647712,1.554,259,4.333,0.058,2.268,100.6789,1.032,2.207,29.92,0,109.7,13.55,1.79,221.0
"2010-02-03 00:37:00",1647713,3.501,266.7,6.71,1.084,6.073,100.6792,1.032,2.312,29.51,0,109.7,13.52,1.79,228.7
"2010-02-03 00:37:30",1647714,3.37,262.6,6.011,1.086,6.568,100.6806,1.036,2.385,28.02,0,109.7,13.52,1.79,224.6
"2010-02-03 00:38:00",1647715,2.041,264.3,5.163,1.131,4.094,100.6846,1.046,2.309,26.49,0,109.7,13.52,1.80,226.3
"2010-02-03 00:38:30",1647716,3.045,284.5,9.79,1.154,5.428,100.6883,1.056,2.249,28.32,0,109.7,13.52,1.81,246.5
"2010-02-03 00:39:00",1647717,1.717,289.6,6.671,0.854,2.856,100.6917,1.064,2.264,29.16,0,109.7,13.52,1.82,251.6
"2010-02-03 00:39:30",1647718,2.222,290.8,4.913,1.21,2.934,100.6926,1.067,2.119,29.28,0,109.7,13.52,1.82,252.8
"2010-02-03 00:40:00",1647719,1.216,293,4.598,0.072,1.55,100.6921,1.065,2.107,29.36,0,109.7,13.56,1.82,255.0
"2010-02-03 00:40:30",1647720,2.411,293,7.012,1.227,4.371,100.6927,1.067,2.31,29.65,0,109.7,13.53,1.82,255.0
"2010-02-03 00:41:00",1647721,2.666,286.2,6.587,1.203,5.599,100.6879,1.055,2.341,29.79,0,109.7,13.53,1.81,248.2
"2010-02-03 00:41:30",1647722,1.415,264.2,8.71,0.844,3.141,100.6825,1.041,2.179,29.78,0,109.7,13.53,1.80,226.2
"2010-02-03 00:42:00",1647723,2.225,263.2,8.05,1.18,4.472,100.676,1.024,2.28,29.89,0,109.7,13.53,1.78,225.2
"2010-02-03 00:42:30",1647724,2.135,261.9,7.756,1.3,4.457,100.6772,1.027,2.32,29.74,0,109.7,13.53,1.78,223.9
"2010-02-03 00:43:00",1647725,2.224,255,12.4,1.207,3.985,100.6786,1.031,2.188,29.45,0,109.7,13.52,1.79,217.0
"2010-02-03 00:43:30",1647726,1.214,231.8,1.426,0.033,1.741,100.6789,1.032,2.11,29.16,0,109.7,13.56,1.79,193.8
"2010-02-03 00:44:00",1647727,2.42,240.3,7.293,1.275,4.939,100.6789,1.032,2.298,27.93,0,109.7,13.53,1.79,202.3
"2010-02-03 00:44:30",1647728,3.096,243.8,6.201,1.113,6.329,100.6789,1.032,2.281,26.55,0,109.7,13.53,1.79,205.8
"2010-02-03 00:45:00",1647729,2.114,251.6,9.63,1.222,5.438,100.6789,1.032,2.266,26.16,0,109.7,13.53,1.79,213.6
"2010-02-03 00:45:30",1647730,1.303,278.5,9.95,0.943,3.194,100.6789,1.032,2.073,26.28,0,109.7,13.53,1.79,240.5
"2010-02-03 00:46:00",1647731,2.679,304,6.747,1.258,4.766,100.6789,1.032,2.316,27.47,0,109.7,13.53,1.79,266.0
"2010-02-03 00:46:30",1647732,2.931,301.9,6.502,1.215,4.586,100.6769,1.027,2.218,28.35,0,109.7,13.53,1.78,263.9
"2010-02-03 00:47:00",1647733,1.665,290.8,4.826,0.064,1.694,100.6735,1.018,2.069,29.11,0,109.7,13.57,1.77,252.8
"2010-02-03 00:47:30",1647734,2.63,276.3,6.063,1.248,3.783,100.6701,1.009,2.153,29.2,0,109.7,13.54,1.76,238.3
"2010-02-03 00:48:00",1647735,3.621,280.3,5.33,1.176,6.184,100.6715,1.013,2.311,28.61,0,109.7,13.54,1.77,242.3
"2010-02-03 00:48:30",1647736,2.66,277.6,5.739,1.217,4.484,100.6715,1.013,2.209,28.2,0,109.7,13.54,1.77,239.6
"2010-02-03 00:49:00",1647737,2.973,275.4,5.498,1.311,5.152,100.6738,1.019,2.258,28.44,0,109.7,13.54,1.77,237.4
"2010-02-03 00:49:30",1647738,3.468,275.1,6.298,1.282,5.479,100.6777,1.029,2.312,29.52,0,109.7,13.54,1.78,237.1
"2010-02-03 00:50:00",1647739,2.996,269.5,8.46,1.411,4.126,100.6789,1.032,2.098,29.91,0,109.7,13.54,1.79,231.5
"2010-02-03 00:50:30",1647740,1.698,257.6,1.716,0.04,2.068,100.6789,1.032,2.084,29.91,0,109.7,13.58,1.79,219.6
"2010-02-03 00:51:00",1647741,2.559,258.3,5.095,1.222,4.262,100.6789,1.032,2.241,29.23,0,109.7,13.54,1.79,220.3
"2010-02-03 00:51:30",1647742,3.243,259,6.179,1.164,5.912,100.68,1.035,2.28,28.61,0,109.7,13.54,1.79,221.0
"2010-02-03 00:52:00",1647743,1.941,251.6,5.128,1.109,4.104,100.6834,1.043,2.233,28.42,0,109.7,13.54,1.80,213.6
"2010-02-03 00:52:30",1647744,2.083,257.1,5.603,1.205,3.922,100.6854,1.048,2.191,28.66,0,109.7,13.54,1.80,219.1
"2010-02-03 00:53:00",1647745,3.196,260,5.564,1.156,5.593,100.6869,1.052,2.327,29.48,0,109.7,13.54,1.81,222.0
"2010-02-03 00:53:30",1647746,1.816,249.9,4.508,0.854,2.655,100.6891,1.058,2.22,29.75,0,109.6,13.54,1.81,211.9
"2010-02-03 00:54:00",1647747,1.608,249.4,1.391,0.131,2.012,100.6897,1.059,2.113,29.18,0,109.7,13.58,1.81,211.4
"2010-02-03 00:54:30",1647748,3.058,251.8,6.422,1.258,5.953,100.6931,1.068,2.326,29.94,0,109.7,13.55,1.82,213.8
"2010-02-03 00:55:00",1647749,3.761,256.5,5.813,1.008,7.116,100.6934,1.069,2.338,29.76,0,109.6,13.55,1.82,218.5
"2010-02-03 00:55:30",1647750,2.96,257.4,4.367,1.101,5.198,100.6957,1.074,2.19,29.54,0,109.6,13.55,1.83,219.4
"2010-02-03 00:56:00",1647751,3.494,267.4,6.457,1.244,5.54,100.7059,1.101,2.331,30.23,0,109.6,13.55,1.86,229.4
"2010-02-03 00:56:30",1647752,3.37,263.3,6.826,1.275,5.476,100.7181,1.132,2.38,30.66,0,109.6,13.55,1.89,225.3
"2010-02-03 00:57:00",1647753,2.336,253,7.042,1.141,3.624,100.7274,1.155,2.181,30.59,0,109.6,13.55,1.91,215.0
"2010-02-03 00:57:30",1647754,1.668,249.7,2.888,0.466,2.302,100.7376,1.181,2.205,29.94,0,109.6,13.58,1.94,211.7
"2010-02-03 00:58:00",1647755,3.442,264.3,6.214,1.072,5.76,100.7402,1.188,2.424,29.25,0,109.6,13.54,1.94,226.3
"2010-02-03 00:58:30",1647756,2.671,273.7,5.988,1.215,5.434,100.7408,1.189,2.353,29.06,0,109.6,13.54,1.95,235.7
"2010-02-03 00:59:00",1647757,2.169,276.9,4.738,1.061,3.316,100.7396,1.187,2.305,28.03,0,109.6,13.54,1.94,238.9
"2010-02-03 00:59:30",1647758,3.106,279.1,6.103,1.248,4.226,100.7413,1.191,2.306,27.96,0,109.6,13.54,1.95,241.1
"2010-02-03 01:00:00",1647759,3.072,279.8,7.101,1.258,5.01,100.7416,1.192,2.401,28.86,0,109.6,13.54,1.95,241.8
"2010-02-03 01:00:30",1647760,1.876,273.6,4.611,0.759,2.756,100.7473,1.206,2.36,29.05,0,109.6,13.54,1.96,235.6
"2010-02-03 01:01:00",1647761,2.53,272.4,5.711,1.067,3.401,100.7637,1.248,2.352,29.94,0,109.6,13.55,2.00,234.4
"2010-02-03 01:01:30",1647762,3.641,273.6,7.184,1.19,5.697,100.7739,1.274,2.495,31.33,0,109.6,13.54,2.03,235.6
"2010-02-03 01:02:00",1647763,3.339,264.7,7.807,1.241,6.044,100.7798,1.289,2.445,32.16,0,109.6,13.54,2.05,226.7
"2010-02-03 01:02:30",1647764,2.484,264.7,6.276,1.037,3.881,100.7807,1.291,2.271,31.83,0,109.6,13.55,2.05,226.7
"2010-02-03 01:03:00",1647765,3.068,282.4,8.62,1.235,5.11,100.781,1.292,2.508,32.25,0,109.6,13.55,2.05,244.4
"2010-02-03 01:03:30",1647766,3.797,290.8,6.052,1.189,5.822,100.781,1.292,2.474,32.49,0,109.6,13.55,2.05,252.8
"2010-02-03 01:04:00",1647767,2.126,275.2,4.986,0.522,2.639,100.781,1.292,2.291,32.63,0,109.6,13.56,2.05,237.2
"2010-02-03 01:04:30",1647768,2.911,267.9,8.26,1.229,4.848,100.781,1.292,2.489,32.61,0,109.6,13.56,2.05,229.9
"2010-02-03 01:05:00",1647769,3.996,282.3,5.731,1.238,5.905,100.781,1.292,2.501,32.29,0,109.6,13.56,2.05,244.3
"2010-02-03 01:05:30",1647770,4.423,282,6.14,1.184,5.833,100.7827,1.296,2.421,32.83,0,109.6,13.56,2.05,244.0
"2010-02-03 01:06:00",1647771,3.221,271.8,4.571,0.716,3.656,100.7946,1.327,2.509,33.34,0,109.6,13.56,2.08,233.8
"2010-02-03 01:06:30",1647772,3.791,269.5,9.85,1.462,5.641,100.8115,1.37,2.503,33.21,0,109.6,13.56,2.13,231.5
"2010-02-03 01:07:00",1647773,2.547,238.2,4.327,1.141,4.733,100.8149,1.379,2.497,32.17,0,109.6,13.56,2.14,200.2
"2010-02-03 01:07:30",1647774,1.561,227.9,4.637,0.523,3.18,100.8149,1.379,2.396,30.77,0,109.6,13.56,2.14,189.9
"2010-02-03 01:08:00",1647775,3.466,242.5,6.717,1.025,6.677,100.8149,1.379,2.584,30.68,0,109.6,13.56,2.14,204.5
"2010-02-03 01:08:30",1647776,2.908,252.6,11.44,1.219,6.368,100.8149,1.379,2.622,30.98,0,109.6,13.56,2.14,214.6
"2010-02-03 01:09:00",1647777,1.792,259.9,3.179,0.115,3.335,100.8178,1.386,2.403,31.39,0,109.6,13.59,2.14,221.9
"2010-02-03 01:09:30",1647778,2.781,260.4,6.894,1.17,5.203,100.8339,1.427,2.596,31.99,0,109.6,13.56,2.18,222.4
"2010-02-03 01:10:00",1647779,2.218,258.6,8.15,1.161,4.586,100.8469,1.46,2.544,31.71,0,109.6,13.56,2.22,220.6
"2010-02-03 01:10:30",1647780,2.829,268.9,8.42,1.213,5.18,100.8489,1.465,2.603,31.74,0,109.6,13.56,2.22,230.9
"2010-02-03 01:11:00",1647781,2.175,274.8,7.193,1.09,3.666,100.8489,1.465,2.488,31.79,0,109.6,13.56,2.22,236.8
"2010-02-03 01:11:30",1647782,3.381,282.9,6.362,1.213,5.58,100.8497,1.467,2.68,32.49,0,109.6,13.56,2.22,244.9
"2010-02-03 01:12:00",1647783,2.88,291,5.099,1.217,4.988,100.8529,1.475,2.667,32.32,0,109.6,13.56,2.23,253.0
"2010-02-03 01:12:30",1647784,2.546,297,8.24,1.175,3.8,100.8664,1.51,2.691,31.75,0,109.6,13.56,2.27,259.0
"2010-02-03 01:13:00",1647785,2.726,300.3,4.642,0.914,2.715,100.8741,1.53,2.558,31.16,0,109.6,13.56,2.29,262.3
"2010-02-03 01:13:30",1647786,3.419,292.7,8.83,1.183,5.765,100.8828,1.552,2.789,31.5,0,109.6,13.56,2.31,254.7
"2010-02-03 01:14:00",1647787,2.534,266.3,5.236,0.923,3.786,100.8828,1.552,2.646,31.98,0,109.6,13.56,2.31,228.3
"2010-02-03 01:14:30",1647788,3.348,268.1,6.284,1.21,6.487,100.8828,1.552,2.78,32.16,0,109.6,13.56,2.31,230.1
"2010-02-03 01:15:00",1647789,3.162,264.3,6.144,1.176,6.537,100.8834,1.553,2.808,32.13,0,109.6,13.56,2.31,226.3
"2010-02-03 01:15:30",1647790,2.036,251.2,5.822,0.742,3.985,100.8882,1.566,2.682,31.66,0,109.6,13.56,2.32,213.2
"2010-02-03 01:16:00",1647791,2.321,256.2,5.683,1.043,4.629,100.899,1.593,2.78,31.2,0,109.6,13.56,2.35,218.2
"2010-02-03 01:16:30",1647792,2.22,260.8,4.764,1.074,3.815,100.9069,1.613,2.678,30.98,0,109.6,13.56,2.37,222.8
"2010-02-03 01:17:00",1647793,2.004,268.6,4.9,0.485,2.931,100.9143,1.632,2.692,30.97,0,109.6,13.56,2.39,230.6
"2010-02-03 01:17:30",1647794,3.448,303.5,9.69,1.268,4.96,100.9168,1.639,2.755,31.13,0,109.6,13.56,2.40,265.5
"2010-02-03 01:18:00",1647795,3.861,309.8,6.439,1.209,5.925,100.9171,1.639,2.886,31.19,0,109.6,13.56,2.40,271.8
"2010-02-03 01:18:30",1647796,4.451,295.3,6.591,1.02,6.611,100.9177,1.641,2.882,31.29,0,109.6,13.56,2.40,257.3
"2010-02-03 01:19:00",1647797,3.279,291.6,5.739,1.144,4.379,100.9171,1.639,2.89,31.5,0,109.6,13.56,2.40,253.6
"2010-02-03 01:19:30",1647798,3.891,295.6,6.172,1.333,4.93,100.9171,1.639,2.731,31.02,0,109.6,13.56,2.40,257.6
"2010-02-03 01:20:00",1647799,2.694,278.1,4.618,0.823,3.794,100.9177,1.641,2.816,28.86,0,109.6,13.57,2.40,240.1
"2010-02-03 01:20:30",1647800,2.852,268.2,8.34,1.15,3.965,100.9225,1.653,2.77,28.02,0,109.6,13.56,2.41,230.2
"2010-02-03 01:21:00",1647801,3.33,259.2,7.6,1.267,6.281,100.9429,1.705,2.972,27.72,0,109.6,13.57,2.46,221.2
"2010-02-03 01:21:30",1647802,3.575,259.6,5.27,1.256,7.051,100.9553,1.737,2.896,27.07,0,109.6,13.57,2.49,221.6
"2010-02-03 01:22:00",1647803,3.224,262.4,6.322,1.229,6.19,100.9536,1.732,2.842,26.74,0,109.6,13.57,2.49,224.4
"2010-02-03 01:22:30",1647804,2.177,271.5,4.658,1.007,3.856,100.9576,1.743,2.824,26.48,0,109.6,13.57,2.50,233.5
"2010-02-03 01:23:00",1647805,3.255,291.7,6.4,1.131,4.813,100.957,1.741,2.836,26.28,0,109.6,13.57,2.50,253.7
"2010-02-03 01:23:30",1647806,2.736,287.8,4.113,0.773,3.183,100.9585,1.745,2.891,26.82,0,109.6,13.57,2.50,249.8
"2010-02-03 01:24:00",1647807,3.518,291.5,6.322,1.252,4.591,100.9585,1.745,2.841,27.86,0,109.6,13.57,2.50,253.5
"2010-02-03 01:24:30",1647808,3.974,300.3,6.145,1.122,6.097,100.9693,1.772,2.995,27.98,0,109.6,13.57,2.53,262.3
"2010-02-03 01:25:00",1647809,3.292,299.5,7.882,1.274,6.331,100.969,1.772,2.986,27.12,0,109.6,13.57,2.53,261.5
"2010-02-03 01:25:30",1647810,2.345,290.9,5.836,1.212,4.776,100.9789,1.797,2.894,25.9,0,109.6,13.57,2.56,252.9
"2010-02-03 01:26:00",1647811,2.407,294.8,7.465,1.262,4.483,100.9922,1.831,2.985,25.48,0,109.6,13.57,2.59,256.8
"2010-02-03 01:26:30",1647812,2.323,298.6,4.551,0.907,3.053,100.9965,1.842,2.823,24.98,0,109.6,13.57,2.60,260.6
"2010-02-03 01:27:00",1647813,2.125,301.9,4.717,0.767,3.262,100.9993,1.849,2.96,24.91,0,109.6,13.57,2.61,263.9
"2010-02-03 01:27:30",1647814,3.464,306.1,6.82,1.232,5.814,100.9982,1.846,2.94,24.74,0,109.6,13.57,2.60,268.1
"2010-02-03 01:28:00",1647815,3.367,300.2,7.75,1.153,6.37,101.0001,1.851,3.071,24.61,0,109.6,13.57,2.61,262.2
"2010-02-03 01:28:30",1647816,3.091,295.9,7.152,1.186,6.417,101.003,1.858,3.015,24.31,0,109.6,13.57,2.62,257.9
"2010-02-03 01:29:00",1647817,2.305,294.5,6.109,1.268,5.269,101.003,1.858,3.091,24.22,0,109.6,13.57,2.62,256.5
"2010-02-03 01:29:30",1647818,2.188,287.2,7.484,1.244,3.886,101.0039,1.861,2.88,24.37,0,109.6,13.57,2.62,249.2
"2010-02-03 01:30:00",1647819,1.09,280.2,2.256,0.079,2.181,101.0007,1.853,2.878,25.03,0,109.6,13.61,2.61,242.2
"2010-02-03 01:30:30",1647820,0.993,265.8,9.18,0.071,2.589,101.0027,1.858,2.891,24.84,0,109.6,13.6,2.62,227.8
"2010-02-03 01:31:00",1647821,1.608,252.6,6.678,1.013,4.337,101.0072,1.869,3.044,24.37,0,109.6,13.57,2.63,214.6
"2010-02-03 01:31:30",1647822,3.262,260.3,6.338,1.068,7.338,101.0197,1.901,3.125,24.8,0,109.6,13.57,2.66,222.3
"2010-02-03 01:32:00",1647823,3.217,256.9,6.819,1.205,7.448,101.028,1.922,3.159,25.9,0,109.6,13.57,2.68,218.9
"2010-02-03 01:32:30",1647824,3.329,266.7,6.558,1.166,7.494,101.0384,1.949,3.101,26.87,0,109.6,13.57,2.71,228.7
"2010-02-03 01:33:00",1647825,2.661,274.2,7.811,1.241,5.712,101.0404,1.954,3.092,26.79,0,109.6,13.57,2.71,236.2
"2010-02-03 01:33:30",1647826,1.786,282,3.311,0.232,2.475,101.0407,1.955,2.939,25.81,0,109.6,13.6,2.71,244.0
"2010-02-03 01:34:00",1647827,2.448,288.2,2.836,0.132,2.101,101.0407,1.955,2.937,25.69,0,109.6,13.6,2.71,250.2
"2010-02-03 01:34:30",1647828,3.276,294.2,5.636,1.232,4.568,101.0435,1.962,3.06,26.11,0,109.6,13.57,2.72,256.2
"2010-02-03 01:35:00",1647829,3.867,295.7,6.51,1.047,7.37,101.043,1.96,3.196,25.89,0,109.6,13.57,2.72,257.7
"2010-02-03 01:35:30",1647830,4.018,297.7,6.138,0.968,7.178,101.0427,1.96,3.221,25.41,0,109.6,13.57,2.72,259.7
"2010-02-03 01:36:00",1647831,3.407,294.3,7.662,1.21,6.451,101.0447,1.965,3.219,25.29,0,109.6,13.57,2.72,256.3
"2010-02-03 01:36:30",1647832,3.341,297.9,4.079,1.05,3.567,101.0435,1.962,2.991,25.17,0,109.6,13.57,2.72,259.9
"2010-02-03 01:37:00",1647833,2.76,296.8,0.422,0.051,2.02,101.0458,1.968,2.988,26.42,0,109.6,13.61,2.73,258.8
"2010-02-03 01:37:30",1647834,3.389,300.1,6.222,1.023,3.589,101.0487,1.975,3.094,27.65,0,109.6,13.57,2.73,262.1
"2010-02-03 01:38:00",1647835,4.379,305.8,6.499,1.186,5.999,101.0574,1.997,3.203,27.67,0,109.6,13.58,2.76,267.8
"2010-02-03 01:38:30",1647836,4.661,309,4.457,0.883,7.255,101.0608,2.006,3.319,28.96,0,109.6,13.58,2.76,271.0
"2010-02-03 01:39:00",1647837,4.315,306.1,6.355,1.119,6.161,101.0637,2.013,3.26,30.01,0,109.6,13.58,2.77,268.1
"2010-02-03 01:39:30",1647838,4.024,307.9,6.05,1.255,5.256,101.0642,2.015,3.187,29.39,0,109.6,13.57,2.77,269.9
"2010-02-03 01:40:00",1647839,2.761,302.2,0.712,0.051,2.711,101.0696,2.028,3.035,26.79,0,109.6,13.61,2.79,264.2
"2010-02-03 01:40:30",1647840,3.392,303.8,5.958,1.129,4.712,101.0705,2.031,3.116,25.28,0,109.6,13.57,2.79,265.8
"2010-02-03 01:41:00",1647841,4.141,306.2,6.706,1.201,6.792,101.069,2.027,3.222,24.54,0,109.6,13.57,2.79,268.2
"2010-02-03 01:41:30",1647842,4.211,307.4,5.949,1.155,7.261,101.0713,2.033,3.195,24.02,0,109.6,13.58,2.79,269.4
"2010-02-03 01:42:00",1647843,4.242,306.4,6.809,1.183,6.117,101.0719,2.034,3.275,23.97,0,109.6,13.58,2.79,268.4
"2010-02-03 01:42:30",1647844,4.211,299.9,5.825,1.209,5.809,101.0741,2.04,3.241,25.22,0,109.6,13.57,2.80,261.9
"2010-02-03 01:43:00",1647845,2.599,292.2,0.563,0.049,2.211,101.075,2.042,3.028,27,0,109.6,13.61,2.80,254.2
"2010-02-03 01:43:30",1647846,2.245,296.7,1.927,0.129,2.323,101.079,2.052,3.034,27.44,0,109.6,13.61,2.81,258.7
"2010-02-03 01:44:00",1647847,3.318,303.7,5.709,1.157,6.18,101.0778,2.049,3.294,26.67,0,109.6,13.58,2.81,265.7
"2010-02-03 01:44:30",1647848,3.512,300,6.431,1.165,7.337,101.0775,2.049,3.296,25.59,0,109.6,13.58,2.81,262.0
"2010-02-03 01:45:00",1647849,3.63,299.4,6.975,1.346,6.641,101.0781,2.05,3.253,24.19,0,109.6,13.58,2.81,261.4
"2010-02-03 01:45:30",1647850,4.096,306.6,5.823,1.171,5.86,101.0795,2.054,3.22,23.79,0,109.6,13.58,2.81,268.6
"2010-02-03 01:46:00",1647851,3.765,309.7,6.204,1.243,5.633,101.0792,2.053,3.322,24.3,0,109.6,13.58,2.81,271.7
"2010-02-03 01:46:30",1647852,2.491,299.5,1.858,0.046,2.807,101.0821,2.06,3.043,24.25,0,109.6,13.57,2.82,261.5
"2010-02-03 01:47:00",1647853,3.841,309.3,5.938,1.269,4.798,101.0838,2.065,3.18,24.52,0,109.6,13.57,2.82,271.3
"2010-02-03 01:47:30",1647854,3.986,308.7,6.028,1.21,5.884,101.0818,2.06,3.288,25.35,0,109.6,13.57,2.82,270.7